Weather in Novotroitsk

Russia / Altai Krai     53°54′15″N   83°44′52″E
temp.,
°C
wind,
m/s
gust,
m/s
humid.,
%
clouds,
%
prec.,
mm/h
press.,
hPa
HPBL,
m
26 february, fri
fri2601:00−21sw51290100 0.4 1025964
04:00−23sw61294100 0.1 10261094
07:00−23sw71291100 0.2 1029967
10:00−25sw81389100 0.0 1031843
13:00−21wsw81489100 0.1 10331132
16:00−20sw81389100 0.1 10341147
19:00−22sw61192100 0.3 1036910
22:00−22sw51194100 0.1 1037809
27 february, sat
sat2701:00−24sw41096100 0.1 1038559
04:00−24sw4997100 0.1 1038477
07:00−25sw4897100 0.1 1038448
10:00−24sw4795100 0.1 1039491
13:00−21sw4792100 0.3 1039666
16:00−20sw4689100 0.1 1039739
19:00−23sw3394100 0.1 103928
22:00−27sw239728 0.0 104019
28 february, sun
sun2801:00−28ssw229717 0.0 104019
04:00−29sse2210061 0.0 103919
07:00−29sse239860 0.0 103920
10:00−26se359535 0.0 1038139
13:00−19se469548 0.0 1036314
16:00−14sse4886100 0.0 1033658
19:00−14se4795100 0.1 1030221
22:00−13se5995100 0.8 1027295
1 march, mon
mon101:00−10sse51095100 1.9 1023411
04:00−9sse51195100 1.1 1019721
07:00−7s61395100 2.8 1016858
10:00−6ssw81495100 2.4 1013928
13:00−4sw91594100 5.4 10111028
16:00−2sw101692100 0.5 10111006
19:00−1sw81498100 3.4 1011685
22:000sw71395100 2.3 1011803
2 march, tue
tue201:00−3ssw7159299 3.6 1010631
04:00−2ssw81595100 0.5 1009685
07:00−2wsw81492100 1.9 1009778
10:00−4wsw81492100 0.2 1012759
13:00−4sw71192100 0.4 1014863
16:00−6wsw71091100 0.4 1015790
19:00−9wsw4993100 0.6 1016462
22:00−11w3796100 0.3 1017256